Gallup, NM

9:27 AM MDT on August 26, 2016 (GMT -0600)
Gallup Municipal

Weather History for KGUP - May, 2013

Change the Weather History Date:

Wednesday, May 15, 2013

  Actual Average Record
Temperature  
Mean Temperature 64 °F -  
Max Temperature 84 °F 73 °F 84 °F (1988)
Min Temperature 46 °F 34 °F 23 °F (2014)
Degree Days  
Heating Degree Days 1    
Growing Degree Days 14 (Base 50)    
Moisture  
Dew Point 24 °F    
Average Humidity 23    
Maximum Humidity 48    
Minimum Humidity 9    
Precipitation  
Precipitation 0.00 in - - ()
Sea Level Pressure  
Sea Level Pressure 29.66 in    
Wind  
Wind Speed 9 mph (WSW)    
Max Wind Speed 28 mph    
Max Gust Speed 39 mph    
Visibility 10 miles    
Events      
Averages and records for this station are not official NWS values.
T = Trace of Precipitation, MM = Missing Value Source: NWS Daily Summary

Daily Weather History Graph

Daily Weather History Graph

Search for Another Location

Airport or City:

Trip Planner

Search our weather history database for the weather conditions in past years. The results will help you decide how hot, cold, wet, or windy it might be!

Date:

Astronomy

May. 15, 2013 Rise Set
Actual Time 6:10 AM MDT 8:13 PM MDT
Civil Twilight 5:41 AM MDT 8:41 PM MDT
Nautical Twilight 5:07 AM MDT 9:16 PM MDT
Astronomical Twilight 4:30 AM MDT 9:53 PM MDT
Moon 10:46 AM MDT (5/15) 12:03 AM MDT (5/15)
Length of Visible Light 14h 59m
Length of Day
14h 03m
Waxing Crescent, 27% of the Moon is Illuminated
May 15
Waxing Crescent
May 17
First Quarter
May 24
Full
May 31
Last Quarter
Jun 8
New

Hourly Weather History & Observations

Time (MDT) Temp. Dew Point Humidity Pressure Visibility Wind Dir Wind Speed Gust Speed Precip Events Conditions
12:53 AM 61.0 °F 30.9 °F 32% 29.66 in 10.0 mi Calm Calm - N/A   Clear
1:53 AM 60.1 °F 30.9 °F 33% 29.65 in 10.0 mi SW 6.9 mph - N/A   Mostly Cloudy
2:53 AM 63.0 °F 32.0 °F 31% 29.65 in 10.0 mi WSW 5.8 mph - 0.00 in   Overcast
3:53 AM 54.0 °F 30.9 °F 41% 29.71 in 10.0 mi Calm Calm - N/A   Clear
4:53 AM 48.9 °F 28.9 °F 46% 29.72 in 10.0 mi Calm Calm - N/A   Clear
5:53 AM 46.9 °F 28.0 °F 48% 29.75 in 10.0 mi Calm Calm - N/A   Clear
6:53 AM 50.0 °F 30.0 °F 46% 29.75 in 10.0 mi Calm Calm - N/A   Clear
7:53 AM 57.0 °F 28.9 °F 34% 29.75 in 10.0 mi SSW 6.9 mph - N/A   Clear
8:53 AM 64.9 °F 28.9 °F 26% 29.72 in 10.0 mi SW 8.1 mph - N/A   Clear
9:53 AM 73.9 °F 24.1 °F 16% 29.67 in 10.0 mi WNW 20.7 mph 29.9 mph N/A   Scattered Clouds
10:53 AM 77.0 °F 24.1 °F 14% 29.65 in 10.0 mi West 17.3 mph - N/A   Clear
11:53 AM 78.1 °F 24.1 °F 14% 29.64 in 10.0 mi West 16.1 mph 28.8 mph N/A   Clear
12:53 PM 81.0 °F 24.1 °F 12% 29.62 in 10.0 mi WSW 23.0 mph 27.6 mph N/A   Clear
1:53 PM 81.0 °F 23.0 °F 12% 29.60 in 10.0 mi WSW 21.9 mph 32.2 mph N/A   Clear
2:53 PM 81.0 °F 23.0 °F 12% 29.56 in 10.0 mi WSW 23.0 mph 31.1 mph N/A   Clear
3:53 PM 82.9 °F 19.0 °F 9% 29.58 in 10.0 mi WSW 23.0 mph 34.5 mph N/A   Clear
4:53 PM 81.0 °F 19.0 °F 10% 29.61 in 10.0 mi WSW 27.6 mph 35.7 mph N/A   Clear
5:53 PM 80.1 °F 15.1 °F 9% 29.63 in 10.0 mi West 26.5 mph 39.1 mph N/A   Clear
6:53 PM 75.0 °F 17.1 °F 11% 29.65 in 10.0 mi WSW 21.9 mph 32.2 mph N/A   Clear
7:53 PM 71.1 °F 16.0 °F 12% 29.65 in 10.0 mi West 24.2 mph 31.1 mph N/A   Clear
8:53 PM 68.0 °F 17.1 °F 14% 29.63 in 10.0 mi WSW 16.1 mph - N/A   Clear
9:53 PM 66.0 °F 19.0 °F 17% 29.62 in 10.0 mi SW 13.8 mph - N/A   Clear
10:53 PM 64.0 °F 19.9 °F 18% 29.63 in 10.0 mi WSW 13.8 mph - N/A   Clear
11:53 PM 57.9 °F 21.0 °F 24% 29.67 in 10.0 mi SW 8.1 mph - N/A   Clear